Simultaneous Nadir Overpasses (SNOs) Predictions

Prediction of SNOs between GOES-16 and NPP Satellite Orbit:

Table of predicted SNOs for the next 14.0 days since TLE Epoch: 5/13/2023
Index Date Time (GOES-16) GOES-16 Lat,Lon NPP Lat,Lon Distance(km) Time Diff (sec)
1 05/13/2023 18:18:44 0.02, -75.19 0.59, -72.62 293.12 80
2 05/15/2023 06:40:31 -0.01, -75.20 0.56, -77.90 306.51 80
3 05/16/2023 06:19:06 -0.02, -75.21 -0.44, -73.36 210.86 80
4 05/17/2023 18:41:01 0.02, -75.23 -0.76, -78.67 391.67 80
5 05/18/2023 18:24:56 0.02, -75.24 0.24, -74.13 126.09 80
6 05/20/2023 06:46:43 -0.02, -75.26 0.90, -79.41 472.47 80
7 05/21/2023 06:25:17 -0.02, -75.28 -0.10, -74.88 45.42 80
8 05/23/2023 18:28:27 0.01, -75.32 -0.07, -75.65 37.97 80
9 05/24/2023 18:12:22 0.01, -75.34 0.95, -71.12 480.63 80
10 05/26/2023 06:34:08 -0.01, -75.37 0.25, -76.38 116.47 80
